COSMOS 2491 DEB, 57557

Orbit data source: Space-Track

COSMOS 2491 DEB, 57557 is space debris in LEO originally from a launch on Wed, 25 Dec 2013 UTC launched from the Plesetsk Missile And Space Complex (PKMTR). Debris objects in space refer to the collection of defunct objects orbiting the Earth. Examples of debris include non-operational satellites, rocket bodies, and fragments generated from explosions, collisions, or faulty payload assembly.

Loading next visibility...
Identifier
57557, 2013-076AU
Orbit
LEO
Country
Flag of CISCIS
Related business
Manufacturer
TsNIIKhM
Mission
Spacecraft
Bus & Motor
Unknown
Mass
Unknown
Launch date (UTC)
2013-12-25 (12 years ago)
Launch vehicle
Unknown
Launch site
Plesetsk Missile And Space Complex (PKMTR)
Object type
Payload
Rocket body
Debris
Shape & HBR
Unknown shape, 0.1 m
Radar Cross Section
Small (<0.1 m²)

Expand to show TLE details & history
Last TLE update: 1 week ago

TLE from 1 week ago
0 COSMOS 2491 DEB
1 57557U 13076AU  26111.48080404  .00001336  00000-0  87255-2 0  9997
2 57557  82.4642 202.2982 0145023 169.9639 190.4395 12.47114469134110
Epoch: 2026-04-21T11:32Z
TLE epoch observation values (Epoch: 2026-04-21T11:32:21.469Z)
Latitude
0.00002°
Longitude
179.65278°
Altitude
1,591.392 km
Speed
7.023 km/s
True Right ascension
13h 29m 11s
True Declination
0° 00' 00"
Sunlit
Object was in full shadow at epoch
Visualization orbit readout
Latitude
Unknown
Longitude
Unknown
Altitude
Unknown
Speed
Unknown
Apparent Right ascension
Unknown
Apparent Declination
Unknown
Sunlit
N/A
Visualization observer readout
Local Sidereal Time
19:20:50
Azimuth
Unknown
Elevation
Unknown
Doppler factor
Unknown
Orbital elements
Apogee altitude
1,587.806 km
Perigee altitude
1,360.06 km
Semi-major axis
7,852.07 km
Eccentricity
0.0145
Inclination
82.4642°
RAAN
202.2982°
Arg. of periapsis
169.9639°
True anomaly
190.14366°
Mean anomaly
190.4395°
Eccentric anomaly
190.29106°
Mean motion
3.11937 °/min
Orbital period
115.41 mins
BSTAR
0.0087255
Loading maneuver chart data...
Computing Atmospheric mass density...
Loading historical data...
Loading historical data...
Loading historical data...
Loading historical data...
Loading historical data...
Loading historical data...
Loading historical data...

Documentation

Showing up to 5 results
|